SL-8 R/B

Satellite information

Favourite Embed

Satellite Type and Status

ROCKET BODYIN ORBIT

Key statistics

Satellite SL-8 R/B at a glance.

Uptime

16770

Days in orbit

Revolutions

≈ 13.8

Per day

Orbit

LEO

Low Earth Orbit

Inclination

82.9

Latest

Satellite identification and parameters

Extended collection of information and parameters for SL-8 R/B.

Object identification

Identified? True

Debris? False

Object name: SL-8 R/B

International designator: 1980-003B

Object number (NORAD): 11668

Object ID (CCSDS): 11668

Country: COMMONWEALTH OF INDEPENDENT STATES (CIS)

Current information (Y/N): Y

RCS size: LARGE

Orbital parameters

Period: 104.658 minutes

Inclination: 82.9492 deg

SMA: 7356.544 km

Apoapsis: 993.429 km

Periapsis: 963.39 km

RAAN: 268.4975 deg

Eccentricy: 0.00204167

Argument of periapsis: 286.731 deg

Mean anomaly: 185.7957 deg

Mean motion: 13.75916139 rev/day

Mean motion (dot): 0.00000097 rev/day2

B* drag term: 0.000084962684 1/REarth

Two-line elements (TLE)

Creation date: Dec. 12, 2025, 10:14 a.m.

Reference frame: TEME

Reference center: EARTH

Epoch: Dec. 12, 2025, 6:35 a.m. UTC

TLE line 0: 0 SL-8 R/B

TLE line 1: 1 11668U 80003B 25346.27476700 .00000097 00000-0 84963-4 0 9996

TLE line 2: 2 11668 82.9492 268.4975 0020417 286.7310 185.7957 13.75916139298725

Live tracking on map

Real-time ground track for satellite SL-8 R/B.

In-orbit conjunctions

A list of the most updated potential collisions computed for object SL-8 R/B.

Target Orbit TCA Probability of collision Miss distance Type
COSMOS 2251 DEB LEO 2025-05-17 16:22:29 0.0001388441 190.0 (m) DEBRIS
THOR ABLESTAR DEB LEO 2024-09-18 15:18:20 0.0003463787 652.0 (m) DEBRIS

Associated space launch

Navigation satellite providing location information for the Tsiklon-B navigation system

SL-8 R/B was lifted into orbit during the mission ‘Kosmos-3M | Parus 22’, on board a Kosmos-3M space rocket.

The launch took place on Jan. 14, 1980, 7:49 p.m. from 132/2.

For more information about the launch, click the button.

Launch to space Kosmos-3M | Parus 22
Kosmos-3M | Parus 22

Agency: N/A

Status: Launch Successful

Launch date: Jan. 14, 1980, 7:49 p.m. UTC

Rocket: Kosmos-3M

Launch pad: 132/2

Location: Plesetsk Cosmodrome, Russian Federation

...

Latest news about this satellite

There are no fresh news available about this satellite. Check back as we update our databases every day.


Newsletter sign-up

Weekly statistics, charts and insights to help you stay on top of the space industry.